Regional Weather Roundup
Issued by NWS

Home | Current Version | Previous Version | Text Only | Print | Product List | Glossary On
Versions: 1 2 3 4 5 6 7 8 9 10 11 12 13 14 15 16 17 18 19 20 21 22 23 24 25 26 27 28 29 30 31 32 33 34 35 36 37 38 39 40 41 42 43 44 45 46 47 48 49 50
000
ASUS44 KOUN 261410
RWROK

WEATHER ROUNDUP FOR OKLAHOMA
NATIONAL WEATHER SERVICE NORMAN OK
900 AM CDT SAT MAY 26 2018

NOTE: "FAIR" INDICATES FEW OR NO CLOUDS BELOW 12,000 FEET WITH NO
      SIGNIFICANT WEATHER AND/OR OBSTRUCTIONS TO VISIBILITY.

OKZ001>007-009>012-014-015-017-261500-
NORTHWEST OKLAHOMA AND THE PANHANDLE

CITY           SKY/WX    TMP DP  RH WIND       PRES   REMARKS
GAGE           SUNNY     75  63  66 CALM      29.90R
GUYMON         SUNNY     70  63  78 S8        29.91F
ENID/WOODRING  MOSUNNY   73  72  94 S6        29.87R
$$

OKZ016-021>023-033>039-044-045-261500-
SOUTHWEST OKLAHOMA

CITY           SKY/WX    TMP DP  RH WIND       PRES   REMARKS
LAWTON/REGL    SUNNY     74  66  76 SE3       29.88R
LAWTON/FT SILL SUNNY     74  68  82 S3        29.87R
FREDERICK      SUNNY     75  64  68 S3        29.86R
CLINTON        SUNNY     77  63  61 E5        29.90R
HOBART         SUNNY     76  65  68 E8        29.88R
ALTUS AFB      SUNNY     77  62  60 SE7       29.87R
$$

OKZ018>020-024>031-261500-
CENTRAL OKLAHOMA

CITY           SKY/WX    TMP DP  RH WIND       PRES   REMARKS
OKLAHOMA CITY  MOSUNNY   73  64  73 SW7       29.88R
OKC/WILEY POST SUNNY     76  65  68 S7        29.88R
OKC/TINKER AFB SUNNY     74  64  69 SW9       29.87S
STILLWATER     SUNNY     74  65  73 SW5       29.87R
GUTHRIE        SUNNY     76  65  68 S6        29.87R
$$

OKZ008-013-054>072-261500-
NORTHEAST OKLAHOMA

CITY           SKY/WX    TMP DP  RH WIND       PRES   REMARKS
TULSA          MOSUNNY   77  64  64 S5        29.85R
TULSA/JONES    SUNNY     75  66  73 SE3       29.86S
PONCA CITY     SUNNY     75  65  70 VRB3      29.87S
BARTLESVILLE   SUNNY     77  68  73 VRB3      29.88R
MUSKOGEE       SUNNY     73  71  93 S3        29.89R
$$

OKZ032-040>043-046>053-073>077-261500-
SOUTH CENTRAL/SOUTHEAST OKLAHOMA

CITY           SKY/WX    TMP DP  RH WIND       PRES   REMARKS
ARDMORE/DWNTWN SUNNY     77  64  65 CALM      29.86R
MCALESTER      MOSUNNY   74  67  78 E5        29.88R
$$




USA.gov is the U.S. government's official web portal to all federal, state and local government web resources and services.